User: anonymous   Login
Location: Whitehorse
(60.7170°N, 135.0500°W)
Time: 04:17:25
(UTC-08:00)
Language:

Cosmos 2219 Rocket - Orbit

View from above orbital plane
View from above orbital plane
View from above satellite
View from above satellite

Ground track
Ground track

The orbit data is extracted from the following two-line orbital elements,

1 22220U 92076B   17324.83296183 +.00000197 +00000-0 +12315-3 0  9991
2 22220 071.0002 089.5152 0011776 024.9530 086.9022 14.16424311292620
Epoch (UTC): 20 November 2017 19:59:27
Eccentricity: 0.0011776
inclination: 71.0002°
perigee height: 829 km
apogee height: 846 km
right ascension of ascending node: 89.5152°
argument of perigee: 24.9530°
revolutions per day: 14.16424311
mean anomaly at epoch: 86.9022°
orbit number at epoch: 29262

The dashed part of the orbit path shows where the satellite is in the earth's shadow,  

DLR